Location: Peebles
(55.6412°N, 3.1714°W)
Time: 19:13:19
(UTC+00:00)

Okean 2 Rocket - Visible Passes

Search period start: 19 January 2022 00:00
Search period end: 29 January 2022 00:00
Orbit: 616 x 641 km, 82.5° (Epoch: 19 January)

Date Brightness Start Highest point End Pass type
(mag) Time Alt. Az. Time Alt. Az. Time Alt. Az.
19 Jan 5.4 04:36:24 10° SE 04:39:52 23° E 04:43:21 10° NE visible
19 Jan 3.1 06:13:18 10° SSW 06:17:37 54° WNW 06:21:59 10° N visible
19 Jan 6.1 17:54:37 10° NW 17:57:07 15° W 17:59:35 10° WSW visible
20 Jan 4.4 04:56:00 10° SSE 05:00:04 38° E 05:04:12 10° NNE visible
20 Jan 3.7 06:34:15 10° SW 06:38:14 33° WNW 06:42:16 10° N visible
21 Jan 6.3 03:42:13 10° E 03:43:13 11° ENE 03:44:14 10° ENE visible
21 Jan 3.3 05:18:40 35° S 05:20:24 67° E 05:24:50 10° NNE visible
21 Jan 4.3 06:56:10 12° WSW 06:58:57 21° WNW 07:02:21 10° N visible
22 Jan 5.6 04:03:03 18° E 04:03:16 18° E 04:06:17 10° NE visible
22 Jan 2.9 05:40:28 67° WSW 05:40:50 71° WNW 05:45:17 10° N visible
22 Jan 4.8 07:17:54 11° W 07:19:49 14° NW 07:22:04 10° NNW visible
22 Jan 5.9 17:17:24 10° NW 17:20:33 19° W 17:23:42 10° SW visible
23 Jan 5.0 04:24:18 28° ENE 04:24:18 28° ENE 04:27:19 10° NNE visible
23 Jan 3.4 06:01:42 41° WNW 06:01:42 41° WNW 06:05:38 10° N visible
23 Jan 6.3 17:39:12 10° WNW 17:40:37 11° WNW 17:42:01 10° W visible
24 Jan 4.5 04:45:16 34° NE 04:45:16 34° NE 04:48:02 10° NNE visible
24 Jan 4.2 06:22:39 25° NW 06:22:39 25° NW 06:25:49 10° N visible
25 Jan 6.2 03:28:40 11° NE 03:28:40 11° NE 03:29:03 10° NE visible
25 Jan 4.3 05:06:03 33° NNE 05:06:03 33° NNE 05:08:34 10° NNE visible
25 Jan 4.7 06:43:27 16° NW 06:43:27 16° NW 06:45:46 10° NNW visible
26 Jan 5.9 03:49:22 15° NE 03:49:22 15° NE 03:50:21 10° NE visible
26 Jan 4.4 05:26:45 28° N 05:26:45 28° N 05:28:59 10° N visible
26 Jan 5.1 07:04:07 11° NW 07:04:07 11° NW 07:04:58 10° NW visible
27 Jan 5.6 04:09:59 17° NNE 04:09:59 17° NNE 04:11:11 10° NNE visible
27 Jan 4.7 05:47:21 21° NNW 05:47:21 21° NNW 05:49:15 10° N visible
28 Jan 5.3 04:30:32 19° NNE 04:30:32 19° NNE 04:31:49 10° NNE visible
28 Jan 4.9 06:07:54 16° NNW 06:07:54 16° NNW 06:09:20 10° N visible
